YS404P SVMI-SVMI

Flight info

Callsign YS404P
Flight time 0h 46m
Altitude 5000
Route SVMI DARPA2 DARPA MARES ILS DME 10L SVMI
Aircraft C172/L-SFG/S

Departure

Time 2026-04-29 22:54
Airport Maiquetía Simón Bolívar International Airport (SVMI)

Arrival

Time 2026-04-29 23:41
Airport Maiquetía Simón Bolívar International Airport (SVMI)
Time Latitude Longitude Altitude Speed Heading
2026-04-29 22:40 10.59973 -67.00235 216 ft 0 kts 138°
2026-04-29 22:49 10.59963 -67.00223 216 ft 10 kts 126°
2026-04-29 22:50 10.59947 -67.00153 217 ft 12 kts 88°
2026-04-29 22:50 10.59955 -67.00060 218 ft 11 kts 46°
2026-04-29 22:50 10.60024 -67.00034 216 ft 9 kts 65°
2026-04-29 22:50 10.60032 -66.99945 218 ft 14 kts 71°
2026-04-29 22:51 10.60093 -66.99922 214 ft 13 kts
2026-04-29 22:51 10.60135 -66.99829 212 ft 20 kts 90°
2026-04-29 22:51 10.60042 -66.99669 220 ft 14 kts 181°
2026-04-29 22:52 10.59997 -66.99670 223 ft 0 kts 176°
2026-04-29 22:52 10.59987 -66.99668 224 ft 8 kts 174°
2026-04-29 22:52 10.59903 -66.99647 225 ft 15 kts 109°
2026-04-29 22:53 10.59902 -66.99623 224 ft 0 kts 81°
2026-04-29 22:53 10.59903 -66.99622 224 ft 3 kts 81°
2026-04-29 22:53 10.59949 -66.99429 213 ft 52 kts 76°
2026-04-29 22:53 10.60052 -66.99009 327 ft 63 kts 79°
2026-04-29 22:54 10.60155 -66.98584 508 ft 62 kts 76°
2026-04-29 22:54 10.60264 -66.98155 693 ft 66 kts 74°
2026-04-29 22:54 10.60402 -66.97689 878 ft 69 kts 75°
2026-04-29 22:54 10.60531 -66.97239 1089 ft 66 kts 72°
2026-04-29 22:55 10.60721 -66.96824 1342 ft 64 kts 59°
2026-04-29 22:55 10.61052 -66.96494 1499 ft 70 kts 32°
2026-04-29 22:55 10.61528 -66.96348 1647 ft 76 kts 15°
2026-04-29 22:55 10.62054 -66.96370 1809 ft 76 kts
2026-04-29 22:56 10.62588 -66.96410 1986 ft 77 kts 353°
2026-04-29 22:56 10.63101 -66.96536 2153 ft 79 kts 351°
2026-04-29 22:56 10.63659 -66.96684 2243 ft 84 kts 348°
2026-04-29 22:56 10.64207 -66.96774 2428 ft 80 kts
2026-04-29 22:57 10.64743 -66.96772 2676 ft 71 kts
2026-04-29 22:57 10.65271 -66.96952 2780 ft 84 kts 341°
2026-04-29 22:57 10.65790 -66.97192 2956 ft 85 kts 342°
2026-04-29 22:57 10.66307 -66.97407 3120 ft 80 kts 330°
2026-04-29 22:58 10.66781 -66.97388 3263 ft 67 kts 16°
2026-04-29 22:58 10.67201 -66.97327 3423 ft 56 kts 13°
2026-04-29 22:58 10.67542 -66.97266 3512 ft 53 kts 10°
2026-04-29 22:58 10.68009 -66.97277 3591 ft 58 kts 358°
2026-04-29 22:59 10.68519 -66.97338 3547 ft 82 kts 360°
2026-04-29 22:59 10.69013 -66.97355 3789 ft 62 kts
2026-04-29 22:59 10.69310 -66.97160 3831 ft 58 kts 86°
2026-04-29 22:59 10.69619 -66.96946 3889 ft 69 kts
2026-04-29 23:00 10.70049 -66.96787 3959 ft 72 kts 20°
2026-04-29 23:00 10.70540 -66.96624 4051 ft 77 kts 23°
2026-04-29 23:00 10.71078 -66.96457 4153 ft 85 kts 20°
2026-04-29 23:00 10.71664 -66.96287 4241 ft 89 kts 20°
2026-04-29 23:01 10.72266 -66.96123 4329 ft 93 kts 22°
2026-04-29 23:01 10.72905 -66.95953 4412 ft 98 kts 19°
2026-04-29 23:01 10.73576 -66.95779 4499 ft 101 kts 19°
2026-04-29 23:01 10.74266 -66.95601 4580 ft 103 kts 19°
2026-04-29 23:02 10.74959 -66.95424 4660 ft 104 kts 19°
2026-04-29 23:02 10.75671 -66.95242 4729 ft 107 kts 19°
2026-04-29 23:02 10.76389 -66.95061 4801 ft 106 kts 20°
2026-04-29 23:02 10.77108 -66.94878 4875 ft 107 kts 21°
2026-04-29 23:03 10.77832 -66.94695 4951 ft 108 kts 19°
2026-04-29 23:03 10.78579 -66.94504 4966 ft 116 kts 20°
2026-04-29 23:03 10.79373 -66.94301 4969 ft 119 kts 21°
2026-04-29 23:03 10.80181 -66.94096 4973 ft 120 kts 21°
2026-04-29 23:04 10.81001 -66.93888 4971 ft 122 kts 19°
2026-04-29 23:04 10.81826 -66.93679 4968 ft 123 kts 18°
2026-04-29 23:04 10.82653 -66.93471 4970 ft 122 kts 19°
2026-04-29 23:04 10.83482 -66.93260 4966 ft 123 kts 19°
2026-04-29 23:05 10.84313 -66.93048 4974 ft 123 kts 19°
2026-04-29 23:05 10.85150 -66.92836 4972 ft 124 kts 20°
2026-04-29 23:05 10.85975 -66.92627 4969 ft 124 kts 20°
2026-04-29 23:05 10.86806 -66.92416 4970 ft 122 kts 18°
2026-04-29 23:06 10.87628 -66.92209 4969 ft 121 kts 20°
2026-04-29 23:06 10.88437 -66.92004 4965 ft 118 kts 20°
2026-04-29 23:06 10.89249 -66.91938 4961 ft 123 kts 347°
2026-04-29 23:06 10.90045 -66.92269 4962 ft 124 kts 343°
2026-04-29 23:07 10.90843 -66.92593 4958 ft 124 kts 342°
2026-04-29 23:07 10.91644 -66.92909 4968 ft 123 kts 343°
2026-04-29 23:07 10.92443 -66.93225 4962 ft 123 kts 347°
2026-04-29 23:07 10.93241 -66.93234 4965 ft 115 kts 19°
2026-04-29 23:08 10.93923 -66.92881 4952 ft 107 kts 59°
2026-04-29 23:08 10.94002 -66.92178 4960 ft 104 kts 112°
2026-04-29 23:08 10.93430 -66.91716 4953 ft 113 kts 161°
2026-04-29 23:08 10.92638 -66.91829 4962 ft 118 kts 189°
2026-04-29 23:09 10.91886 -66.91773 4963 ft 107 kts 142°
2026-04-29 23:09 10.91177 -66.91509 4963 ft 112 kts 164°
2026-04-29 23:09 10.90387 -66.91591 4965 ft 116 kts 183°
2026-04-29 23:09 10.89594 -66.91744 4966 ft 116 kts 185°
2026-04-29 23:10 10.88812 -66.91919 4965 ft 117 kts 187°
2026-04-29 23:10 10.88075 -66.92251 4954 ft 123 kts 226°
2026-04-29 23:10 10.87977 -66.93100 4963 ft 127 kts 287°
2026-04-29 23:10 10.88239 -66.93962 4967 ft 128 kts 288°
2026-04-29 23:11 10.88528 -66.94821 4971 ft 128 kts 285°
2026-04-29 23:11 10.88665 -66.95722 4972 ft 130 kts 277°
2026-04-29 23:11 10.88797 -66.96633 4976 ft 130 kts 277°
2026-04-29 23:11 10.88934 -66.97550 4981 ft 132 kts 278°
2026-04-29 23:12 10.89064 -66.98466 4977 ft 132 kts 273°
2026-04-29 23:12 10.88975 -66.99388 4983 ft 131 kts 257°
2026-04-29 23:12 10.88843 -67.00302 4978 ft 130 kts 262°
2026-04-29 23:12 10.88749 -67.01216 4983 ft 130 kts 261°
2026-04-29 23:13 10.88658 -67.02133 4982 ft 130 kts 263°
2026-04-29 23:13 10.88524 -67.03041 4977 ft 130 kts 261°
2026-04-29 23:13 10.88426 -67.03951 4979 ft 129 kts 261°
2026-04-29 23:13 10.88329 -67.04861 4977 ft 130 kts 262°
2026-04-29 23:14 10.88234 -67.05768 4976 ft 131 kts 262°
2026-04-29 23:14 10.88129 -67.06685 4975 ft 130 kts 257°
2026-04-29 23:14 10.87913 -67.07570 4978 ft 128 kts 251°
2026-04-29 23:14 10.87633 -67.08426 4979 ft 127 kts 245°
2026-04-29 23:15 10.87330 -67.09271 4978 ft 127 kts 246°
2026-04-29 23:15 10.86959 -67.10078 4983 ft 126 kts 235°
2026-04-29 23:15 10.86533 -67.10853 4974 ft 125 kts 238°
2026-04-29 23:15 10.86106 -67.11625 4979 ft 125 kts 236°
2026-04-29 23:16 10.85823 -67.12136 4973 ft 125 kts 237°
2026-04-29 23:16 10.85396 -67.12905 4980 ft 124 kts 237°
2026-04-29 23:16 10.84829 -67.13917 4978 ft 124 kts 236°
2026-04-29 23:16 10.84330 -67.14630 4986 ft 124 kts 229°
2026-04-29 23:17 10.83811 -67.15331 4985 ft 124 kts 230°
2026-04-29 23:17 10.83468 -67.15798 4985 ft 125 kts 228°
2026-04-29 23:17 10.82945 -67.16507 4979 ft 125 kts 229°
2026-04-29 23:17 10.82421 -67.17212 4980 ft 125 kts 229°
2026-04-29 23:18 10.81899 -67.17916 4984 ft 125 kts 228°
2026-04-29 23:18 10.81360 -67.18605 4982 ft 123 kts 220°
2026-04-29 23:18 10.80739 -67.19199 4986 ft 123 kts 219°
2026-04-29 23:18 10.79895 -67.20004 4926 ft 127 kts 219°
2026-04-29 23:19 10.79455 -67.20418 4893 ft 127 kts 218°
2026-04-29 23:19 10.78804 -67.21029 4849 ft 128 kts 219°
2026-04-29 23:19 10.78151 -67.21630 4804 ft 128 kts 216°
2026-04-29 23:19 10.77415 -67.22131 4758 ft 127 kts 208°
2026-04-29 23:20 10.76671 -67.22616 4711 ft 127 kts 208°
2026-04-29 23:20 10.75925 -67.23101 4663 ft 128 kts 208°
2026-04-29 23:20 10.75162 -67.23588 4575 ft 131 kts 209°
2026-04-29 23:20 10.74386 -67.24080 4499 ft 132 kts 208°
2026-04-29 23:21 10.73616 -67.24570 4450 ft 129 kts 210°
2026-04-29 23:21 10.72818 -67.24969 4402 ft 127 kts 199°
2026-04-29 23:21 10.72016 -67.25301 4350 ft 126 kts 198°
2026-04-29 23:21 10.71212 -67.25639 4299 ft 125 kts 199°
2026-04-29 23:22 10.70409 -67.25974 4250 ft 124 kts 198°
2026-04-29 23:22 10.69602 -67.26296 4205 ft 125 kts 197°
2026-04-29 23:22 10.68767 -67.26522 4159 ft 124 kts 187°
2026-04-29 23:22 10.67913 -67.26672 4108 ft 125 kts 187°
2026-04-29 23:23 10.67053 -67.26825 4063 ft 126 kts 186°
2026-04-29 23:23 10.66191 -67.26975 4014 ft 125 kts 186°
2026-04-29 23:23 10.65345 -67.26987 3995 ft 121 kts 172°
2026-04-29 23:23 10.64519 -67.26897 3991 ft 118 kts 167°
2026-04-29 23:24 10.63718 -67.26768 3988 ft 116 kts 168°
2026-04-29 23:24 10.62931 -67.26622 3988 ft 114 kts 162°
2026-04-29 23:24 10.62167 -67.26398 3987 ft 114 kts 161°
2026-04-29 23:24 10.61408 -67.26155 3988 ft 115 kts 159°
2026-04-29 23:25 10.60659 -67.25880 3989 ft 114 kts 151°
2026-04-29 23:25 10.59975 -67.25479 3991 ft 113 kts 143°
2026-04-29 23:25 10.59526 -67.24868 3988 ft 111 kts 107°
2026-04-29 23:25 10.59546 -67.24101 3987 ft 110 kts 83°
2026-04-29 23:26 10.59612 -67.23321 3984 ft 111 kts 86°
2026-04-29 23:26 10.59660 -67.22535 3984 ft 111 kts 87°
2026-04-29 23:26 10.59702 -67.21751 3989 ft 111 kts 87°
2026-04-29 23:26 10.59734 -67.20962 3898 ft 115 kts 88°
2026-04-29 23:27 10.59763 -67.20128 3744 ft 121 kts 88°
2026-04-29 23:27 10.59787 -67.19265 3595 ft 124 kts 88°
2026-04-29 23:27 10.59816 -67.18382 3432 ft 126 kts 88°
2026-04-29 23:27 10.59846 -67.17486 3274 ft 127 kts 88°
2026-04-29 23:28 10.59875 -67.16598 3112 ft 127 kts 88°
2026-04-29 23:28 10.59904 -67.15717 2950 ft 123 kts 88°
2026-04-29 23:28 10.59933 -67.14862 2788 ft 120 kts 88°
2026-04-29 23:28 10.59961 -67.14025 2640 ft 118 kts 88°
2026-04-29 23:29 10.59988 -67.13204 2508 ft 116 kts 88°
2026-04-29 23:29 10.60015 -67.12395 2372 ft 114 kts 89°
2026-04-29 23:29 10.60038 -67.11592 2237 ft 113 kts 89°
2026-04-29 23:29 10.60065 -67.10788 2098 ft 113 kts 87°
2026-04-29 23:30 10.60092 -67.09997 1955 ft 114 kts 88°
2026-04-29 23:30 10.60119 -67.09183 1803 ft 117 kts 88°
2026-04-29 23:30 10.60147 -67.08354 1644 ft 117 kts 88°
2026-04-29 23:30 10.60174 -67.07526 1479 ft 117 kts 88°
2026-04-29 23:31 10.60193 -67.06802 1335 ft 93 kts 86°
2026-04-29 23:31 10.60216 -67.06154 1213 ft 90 kts 87°
2026-04-29 23:31 10.60237 -67.05521 1089 ft 89 kts 87°
2026-04-29 23:31 10.60259 -67.04891 971 ft 83 kts 88°
2026-04-29 23:32 10.60275 -67.04412 883 ft 59 kts 88°
2026-04-29 23:32 10.60289 -67.03969 805 ft 67 kts 85°
2026-04-29 23:32 10.60305 -67.03475 722 ft 74 kts 88°
2026-04-29 23:32 10.60323 -67.02945 633 ft 76 kts 90°
2026-04-29 23:33 10.60340 -67.02390 535 ft 80 kts 87°
2026-04-29 23:33 10.60359 -67.01822 432 ft 79 kts 88°
2026-04-29 23:33 10.60378 -67.01262 333 ft 76 kts 89°
2026-04-29 23:33 10.60391 -67.00788 224 ft 60 kts 89°
2026-04-29 23:34 10.60411 -67.00341 215 ft 78 kts 87°
2026-04-29 23:34 10.60426 -66.99719 228 ft 97 kts 88°
2026-04-29 23:34 10.60454 -66.99031 360 ft 96 kts 87°
2026-04-29 23:34 10.60485 -66.98362 578 ft 93 kts 86°
2026-04-29 23:35 10.60592 -66.97720 810 ft 92 kts 71°
2026-04-29 23:35 10.60999 -66.97236 1007 ft 98 kts 33°
2026-04-29 23:35 10.61592 -66.97032 1318 ft 84 kts 21°
2026-04-29 23:35 10.62179 -66.97058 1474 ft 90 kts 339°
2026-04-29 23:36 10.62521 -66.97580 1579 ft 95 kts 271°
2026-04-29 23:36 10.62516 -66.98235 1759 ft 93 kts 269°
2026-04-29 23:36 10.62549 -66.98909 1902 ft 95 kts 274°
2026-04-29 23:36 10.62597 -66.99603 2007 ft 105 kts 272°
2026-04-29 23:37 10.62641 -67.00361 1975 ft 109 kts 270°
2026-04-29 23:37 10.62634 -67.01135 1978 ft 110 kts 269°
2026-04-29 23:37 10.62623 -67.01919 1952 ft 112 kts 271°
2026-04-29 23:37 10.62607 -67.02692 1978 ft 109 kts 267°
2026-04-29 23:38 10.62502 -67.03465 1980 ft 105 kts 257°
2026-04-29 23:38 10.62368 -67.04167 1677 ft 108 kts 260°
2026-04-29 23:38 10.62098 -67.04741 1599 ft 84 kts 218°
2026-04-29 23:38 10.61582 -67.04868 1411 ft 75 kts 166°
2026-04-29 23:39 10.61060 -67.04797 1137 ft 79 kts 171°
2026-04-29 23:39 10.60537 -67.04699 990 ft 69 kts 149°
2026-04-29 23:39 10.60337 -67.04300 794 ft 66 kts 92°
2026-04-29 23:39 10.60357 -67.03785 689 ft 82 kts 89°
2026-04-29 23:40 10.60345 -67.03169 626 ft 92 kts 91°
2026-04-29 23:40 10.60364 -67.02592 565 ft 74 kts 88°
2026-04-29 23:40 10.60365 -67.02072 445 ft 71 kts 89°
2026-04-29 23:40 10.60366 -67.01613 355 ft 60 kts 88°
2026-04-29 23:41 10.60391 -67.01205 277 ft 57 kts 89°
2026-04-29 23:41 10.60394 -67.00818 224 ft 46 kts 88°
2026-04-29 23:41 10.60401 -67.00511 216 ft 42 kts 89°
2026-04-29 23:41 10.60376 -67.00330 216 ft 10 kts 124°
2026-04-29 23:42 10.60342 -67.00312 211 ft 0 kts 179°
2026-04-29 23:42 10.60270 -67.00311 214 ft 23 kts 175°
2026-04-29 23:43 10.60127 -67.00305 213 ft 18 kts 179°
2026-04-29 23:43 10.60024 -67.00307 215 ft 14 kts 202°
2026-04-29 23:43 10.60033 -67.00374 215 ft 9 kts 356°
2026-04-29 23:43 10.60037 -67.00374 215 ft 0 kts